Nausori, Fiji

2:24 AM +12 on May 01, 2017 (GMT +1200)
Nausori International

Weather History for NFNA - January, 2009

Change the Weather History Date:

Saturday, January 3, 2009

  Actual Average Record
Temperature  
Mean Temperature 80 °F -  
Max Temperature 86 °F 87 °F - ()
Min Temperature 74 °F 75 °F - ()
Cooling Degree Days 15    
Growing Degree Days 30 (Base 50)    
Moisture  
Dew Point 76 °F    
Average Humidity 92    
Maximum Humidity 100    
Minimum Humidity 68    
Precipitation  
Precipitation 0.24 in 0.41 in - ()
Sea Level Pressure  
Sea Level Pressure 29.81 in    
Wind  
Wind Speed 2 mph ()    
Max Wind Speed 8 mph    
Max Gust Speed -    
Visibility 9.7 miles    
Events Rain , Thunderstorm    
T = Trace of Precipitation, MM = Missing Value Source: Averaged Metar Reports

Daily Weather History Graph

Daily Weather History Graph

Search for Another Location

Airport or City:

Trip Planner

Search our weather history database for the weather conditions in past years. The results will help you decide how hot, cold, wet, or windy it might be!

Date:

Astronomy

Jan. 03, 2009 Rise Set
Actual Time 5:34 AM +12 6:45 PM +12
Civil Twilight 5:10 AM +12 7:09 PM +12
Nautical Twilight 4:41 AM +12 7:38 PM +12
Astronomical Twilight 4:12 AM +12 8:07 PM +12
Moon 10:49 AM +12 (1/3) 11:02 PM +12 (1/3)
Length of Visible Light 13h 59m
Length of Day
13h 11m
Waxing Crescent, 35% of the Moon is Illuminated
Jan 3
Waxing Crescent
Jan 4
First Quarter
Jan 11
Full
Jan 18
Last Quarter
Jan 26
New

Hourly Weather History & Observations

Time (+12) Temp. Heat Index Dew Point Humidity Pressure Visibility Wind Dir Wind Speed Gust Speed Precip Events Conditions
12:00 AM 78 °F - 77 °F 94% 29.87 in 12 mi Calm Calm - - Thunderstorm Thunderstorm
12:00 AM 78.8 °F - 77.0 °F 94% 29.86 in 24.9 mi Calm Calm - N/A Thunderstorm Thunderstorm
1:00 AM 77.0 °F - 75.2 °F 94% 29.83 in 24.9 mi NW 6.9 mph - N/A   Scattered Clouds
2:00 AM 77.0 °F - 75.2 °F 94% 29.80 in 24.9 mi WNW 8.1 mph - N/A Rain Light Rain Showers
3:00 AM 76 °F - 75 °F 95% 29.81 in 12 mi WNW 4.6 mph - - Rain Light Rain Showers
3:00 AM 75.2 °F - 75.2 °F 100% 29.80 in 24.9 mi NW 4.6 mph - N/A   Scattered Clouds
4:00 AM 75.2 °F - 75.2 °F 100% 29.80 in 24.9 mi Calm Calm - N/A   Scattered Clouds
5:00 AM 75.2 °F - 73.4 °F 94% 29.80 in 24.9 mi NW 5.8 mph - N/A   Mostly Cloudy
6:00 AM 75 °F - 74 °F 95% 29.83 in 31 mi NW 4.6 mph - -   Partly Cloudy
6:00 AM 75.2 °F - 73.4 °F 94% 29.83 in 31.1 mi NW 4.6 mph - N/A   Mostly Cloudy
7:00 AM 77.0 °F - 75.2 °F 94% 29.83 in 31.1 mi NW 5.8 mph - N/A   Mostly Cloudy
8:00 AM 82.4 °F 90.9 °F 77.0 °F 84% 29.83 in 31.1 mi Calm Calm - N/A   Mostly Cloudy
9:00 AM 83 °F - 77 °F 78% 29.84 in 31 mi Calm Calm - -   Partly Cloudy
9:00 AM 82.4 °F 90.9 °F 77.0 °F 84% 29.83 in 31.1 mi Calm Calm - N/A   Mostly Cloudy
10:00 AM 77.0 °F - 75.2 °F 94% 29.83 in 24.9 mi SE 5.8 mph - N/A Rain Light Rain Showers
11:00 AM 82.4 °F 90.9 °F 77.0 °F 84% 29.80 in 31.1 mi Calm Calm - N/A   Mostly Cloudy
12:00 PM 86 °F - 77 °F 68% 29.79 in 12 mi South 4.6 mph - - Rain Light Rain Showers
12:00 PM 86.0 °F 96.9 °F 77.0 °F 74% 29.77 in 18.6 mi South 4.6 mph - N/A   Mostly Cloudy
1:00 PM 80.6 °F 87.1 °F 77.0 °F 89% 29.77 in 18.6 mi NW 4.6 mph - N/A   Mostly Cloudy
1:10 PM 80.6 °F 87.1 °F 77.0 °F 89% 29.77 in 18.6 mi Calm Calm - N/A Rain , Thunderstorm Light Thunderstorms and Rain
2:00 PM 78.8 °F - 77.0 °F 94% 29.80 in 5.0 mi Calm Calm - N/A Rain , Thunderstorm Light Thunderstorms and Rain
3:00 PM 76 °F - 75 °F 97% 29.79 in 1 mi Calm Calm - - Rain , Thunderstorm Thunderstorms and Rain
3:00 PM 77.0 °F - 75.2 °F 94% 29.77 in 5.0 mi Calm Calm - N/A Rain , Thunderstorm Light Thunderstorms and Rain
4:00 PM 77.0 °F - 75.2 °F 94% 29.77 in 5.0 mi Calm Calm - N/A Rain , Thunderstorm Light Thunderstorms and Rain
5:00 PM 77.0 °F - 75.2 °F 94% 29.77 in 6.2 mi Calm Calm - N/A Thunderstorm Light Thunderstorm
6:00 PM 76 °F - 75 °F 97% 29.81 in 6 mi Calm Calm - - Thunderstorm Light Thunderstorm
6:00 PM 77.0 °F - 75.2 °F 94% 29.80 in 6.2 mi Calm Calm - N/A Thunderstorm Light Thunderstorm
7:00 PM 77.0 °F - 75.2 °F 94% 29.80 in 6.2 mi Calm Calm - N/A   Overcast
8:00 PM 75.2 °F - 75.2 °F 100% 29.80 in 6.2 mi Calm Calm - N/A   Overcast
9:00 PM 76 °F - 75 °F 97% 29.80 in 12 mi Calm Calm - - Rain Light Rain Showers
9:00 PM 75.2 °F - 75.2 °F 100% 29.80 in 12.4 mi Calm Calm - N/A   Mostly Cloudy
10:00 PM 75.2 °F - 75.2 °F 100% 29.80 in 12.4 mi Calm Calm - N/A   Overcast
11:00 PM 75.2 °F - 75.2 °F 100% 29.80 in 24.9 mi Calm Calm - N/A Rain Light Rain Showers